UZB2H UZTT-EDDM

Flight info

Callsign UZB2H
Flight time N/A
Altitude 40000
Route MIKNO2C MIKNO L163 SIVKO M166 ARISA L736 ASKIL L735 BADUS/N0483F400 DCT DIMTA DCT VABER L29 SUWGI L735 IDEXU DCT NAROX DCT RUDNO M736 RDG T105 LANDU LANDU2A
Aircraft B788/H-SDE1E2E3FGHIJ2J3J4J5M1RWXY/LB1D1

Departure

Time 2026-04-28 16:09
Airport Tashkent International Airport (UZTT)

Arrival

Time N/A
Airport Munich Airport (EDDM)
Time Latitude Longitude Altitude Speed Heading
2026-04-28 15:50 41.26173 69.26867 1387 ft 0 kts 22°
2026-04-28 15:57 41.26169 69.26865 1387 ft 2 kts 21°
2026-04-28 15:57 41.26151 69.26858 1382 ft 3 kts
2026-04-28 15:57 41.26132 69.26857 1383 ft 3 kts 345°
2026-04-28 15:58 41.26114 69.26867 1382 ft 3 kts 322°
2026-04-28 15:58 41.26099 69.26885 1382 ft 3 kts 313°
2026-04-28 15:58 41.26085 69.26903 1382 ft 3 kts 338°
2026-04-28 15:58 41.26073 69.26905 1383 ft 3 kts 23°
2026-04-28 15:59 41.26056 69.26893 1382 ft 3 kts 53°
2026-04-28 15:59 41.26047 69.26871 1383 ft 3 kts 68°
2026-04-28 15:59 41.26039 69.26846 1382 ft 3 kts 68°
2026-04-28 15:59 41.26035 69.26835 1382 ft 0 kts 68°
2026-04-28 16:01 41.26036 69.26836 1382 ft 1 kts 68°
2026-04-28 16:01 41.26041 69.26853 1382 ft 3 kts 68°
2026-04-28 16:01 41.26054 69.26895 1382 ft 7 kts 68°
2026-04-28 16:02 41.26077 69.26968 1382 ft 10 kts 68°
2026-04-28 16:02 41.26104 69.27067 1382 ft 12 kts 67°
2026-04-28 16:02 41.26116 69.27172 1384 ft 10 kts 114°
2026-04-28 16:02 41.26082 69.27218 1382 ft 0 kts 136°
2026-04-28 16:03 41.26078 69.27226 1382 ft 2 kts 130°
2026-04-28 16:03 41.26069 69.27254 1382 ft 4 kts 106°
2026-04-28 16:03 41.26072 69.27302 1384 ft 8 kts 84°
2026-04-28 16:03 41.26083 69.27407 1382 ft 15 kts 81°
2026-04-28 16:04 41.26101 69.27568 1387 ft 19 kts 82°
2026-04-28 16:04 41.26121 69.27752 1384 ft 22 kts 82°
2026-04-28 16:04 41.26142 69.27945 1386 ft 21 kts 81°
2026-04-28 16:04 41.26166 69.28156 1385 ft 25 kts 82°
2026-04-28 16:05 41.26191 69.28382 1386 ft 20 kts 83°
2026-04-28 16:05 41.26189 69.28597 1386 ft 26 kts 96°
2026-04-28 16:05 41.26182 69.28822 1383 ft 23 kts 87°
2026-04-28 16:05 41.26193 69.29061 1384 ft 29 kts 86°
2026-04-28 16:06 41.26205 69.29356 1388 ft 35 kts 87°
2026-04-28 16:06 41.26217 69.29668 1387 ft 33 kts 87°
2026-04-28 16:06 41.26225 69.29955 1386 ft 24 kts 97°
2026-04-28 16:06 41.26167 69.30048 1406 ft 9 kts 141°
2026-04-28 16:07 41.26134 69.30076 1407 ft 4 kts 152°
2026-04-28 16:07 41.26116 69.30084 1407 ft 3 kts 166°
2026-04-28 16:07 41.26052 69.30036 1409 ft 6 kts 249°
2026-04-28 16:08 41.26049 69.30005 1400 ft 0 kts 263°
2026-04-28 16:08 41.26036 69.29872 1408 ft 40 kts 262°
2026-04-28 16:08 41.25958 69.29195 1395 ft 107 kts 261°
2026-04-28 16:09 41.25644 69.26340 1851 ft 175 kts 265°
2026-04-28 16:09 41.25505 69.24820 2953 ft 168 kts 263°
2026-04-28 16:09 41.25312 69.23148 3299 ft 199 kts 261°
2026-04-28 16:10 41.24865 69.19251 4735 ft 216 kts 262°
2026-04-28 16:10 41.24646 69.17260 5530 ft 219 kts 262°
2026-04-28 16:10 41.24197 69.13186 7369 ft 224 kts 262°
2026-04-28 16:11 41.25164 69.09283 9177 ft 241 kts 311°
2026-04-28 16:11 41.28631 69.07645 10292 ft 288 kts 349°
2026-04-28 16:12 41.32931 69.06796 10904 ft 336 kts 336°
2026-04-28 16:12 41.34937 69.05249 11810 ft 333 kts 323°
2026-04-28 16:13 41.38636 69.01411 13395 ft 341 kts 319°
2026-04-28 16:13 41.40507 68.99435 14166 ft 346 kts 320°
2026-04-28 16:13 41.44375 68.95488 15644 ft 354 kts 320°
2026-04-28 16:14 41.48303 68.91403 17018 ft 362 kts 320°
2026-04-28 16:14 41.52321 68.87241 18304 ft 369 kts 320°
2026-04-28 16:15 41.56414 68.82987 19527 ft 376 kts 320°
2026-04-28 16:15 41.58491 68.80826 20080 ft 380 kts 320°
2026-04-28 16:15 41.60554 68.78679 20628 ft 383 kts 320°
2026-04-28 16:16 41.64795 68.74259 21670 ft 389 kts 320°
2026-04-28 16:16 41.66937 68.72023 22162 ft 392 kts 320°
2026-04-28 16:17 41.71271 68.67494 23091 ft 398 kts 320°
2026-04-28 16:17 41.73463 68.65201 23528 ft 401 kts 320°
2026-04-28 16:17 41.75668 68.62891 23929 ft 405 kts 320°
2026-04-28 16:17 41.77909 68.60541 23957 ft 411 kts 320°
2026-04-28 16:18 41.80147 68.58194 23949 ft 406 kts 320°
2026-04-28 16:18 41.82370 68.55859 23951 ft 405 kts 320°
2026-04-28 16:18 41.84590 68.53525 23949 ft 406 kts 320°
2026-04-28 16:18 41.86754 68.51107 23949 ft 404 kts 312°
2026-04-28 16:19 41.88502 68.48185 23972 ft 402 kts 304°
2026-04-28 16:19 41.90129 68.45132 23966 ft 402 kts 303°
2026-04-28 16:19 41.91737 68.42055 23967 ft 402 kts 303°
2026-04-28 16:19 41.93329 68.39020 23968 ft 402 kts 304°
2026-04-28 16:20 41.94949 68.35958 23969 ft 402 kts 304°
2026-04-28 16:20 41.96566 68.32898 23970 ft 402 kts 304°
2026-04-28 16:20 41.98179 68.29827 23967 ft 402 kts 303°
2026-04-28 16:20 41.99788 68.26760 23967 ft 402 kts 303°
2026-04-28 16:21 42.01400 68.23689 23966 ft 402 kts 303°
2026-04-28 16:21 42.03013 68.20625 23968 ft 401 kts 305°
2026-04-28 16:21 42.04239 68.18692 23982 ft 404 kts 312°
2026-04-28 16:21 42.06786 68.15028 24566 ft 405 kts 311°
2026-04-28 16:22 42.08711 68.12237 24946 ft 408 kts 311°
2026-04-28 16:22 42.09993 68.10382 25204 ft 410 kts 311°
2026-04-28 16:22 42.11944 68.07563 25586 ft 412 kts 311°
2026-04-28 16:22 42.13903 68.04729 25952 ft 415 kts 311°
2026-04-28 16:23 42.15873 68.01871 26310 ft 417 kts 311°
2026-04-28 16:23 42.17852 67.98999 26666 ft 419 kts 311°
2026-04-28 16:23 42.19841 67.96109 27006 ft 422 kts 311°
2026-04-28 16:23 42.21845 67.93197 27347 ft 424 kts 311°
2026-04-28 16:24 42.23853 67.90274 27681 ft 426 kts 311°
2026-04-28 16:24 42.25875 67.87327 27993 ft 428 kts 311°
2026-04-28 16:24 42.27906 67.84365 28319 ft 431 kts 311°
2026-04-28 16:24 42.29944 67.81391 28622 ft 433 kts 311°
2026-04-28 16:25 42.31991 67.78398 28922 ft 435 kts 311°
2026-04-28 16:25 42.34047 67.75391 29225 ft 437 kts 311°
2026-04-28 16:25 42.36113 67.72366 29507 ft 439 kts 311°
2026-04-28 16:25 42.38188 67.69323 29791 ft 441 kts 311°
2026-04-28 16:26 42.40270 67.66267 30072 ft 443 kts 311°
2026-04-28 16:26 42.42361 67.63196 30341 ft 445 kts 311°
2026-04-28 16:26 42.44460 67.60109 30596 ft 447 kts 311°
2026-04-28 16:26 42.46569 67.57004 30863 ft 448 kts 311°
2026-04-28 16:27 42.48682 67.53890 31127 ft 450 kts 311°
2026-04-28 16:27 42.50807 67.50755 31377 ft 452 kts 311°
2026-04-28 16:27 42.55074 67.44450 31871 ft 456 kts 311°
2026-04-28 16:28 42.57219 67.41274 32114 ft 457 kts 311°
2026-04-28 16:28 42.59373 67.38085 32330 ft 459 kts 311°
2026-04-28 16:28 42.61534 67.34884 32557 ft 461 kts 311°
2026-04-28 16:28 42.63701 67.31671 32786 ft 462 kts 311°
2026-04-28 16:29 42.68058 67.25197 33211 ft 466 kts 311°
2026-04-28 16:29 42.72438 67.18676 33608 ft 469 kts 311°
2026-04-28 16:30 42.74637 67.15394 33799 ft 470 kts 311°
2026-04-28 16:30 42.76843 67.12101 33983 ft 471 kts 311°
2026-04-28 16:30 42.79054 67.08795 34165 ft 473 kts 311°
2026-04-28 16:30 42.81271 67.05477 34335 ft 474 kts 311°
2026-04-28 16:31 42.83491 67.02149 34506 ft 475 kts 311°
2026-04-28 16:31 42.85718 66.98809 34695 ft 476 kts 311°
2026-04-28 16:31 42.87940 66.95472 34956 ft 475 kts 311°
2026-04-28 16:31 42.90161 66.92133 35196 ft 475 kts 310°
2026-04-28 16:32 42.92377 66.88797 35437 ft 474 kts 310°
2026-04-28 16:32 42.96801 66.82124 35903 ft 473 kts 310°
2026-04-28 16:32 42.98980 66.78833 36125 ft 473 kts 310°
2026-04-28 16:33 43.01182 66.75501 36343 ft 473 kts 310°
2026-04-28 16:33 43.02669 66.73245 36473 ft 473 kts 310°
2026-04-28 16:33 43.05579 66.68824 36739 ft 473 kts 310°
2026-04-28 16:33 43.07778 66.65481 36935 ft 473 kts 310°
2026-04-28 16:34 43.09977 66.62136 37133 ft 473 kts 310°
2026-04-28 16:34 43.12171 66.58792 37323 ft 473 kts 310°
2026-04-28 16:34 43.14366 66.55442 37502 ft 473 kts 310°
2026-04-28 16:34 43.16561 66.52090 37691 ft 473 kts 310°
2026-04-28 16:35 43.18755 66.48734 37868 ft 473 kts 310°
2026-04-28 16:35 43.20947 66.45380 38053 ft 473 kts 310°
2026-04-28 16:35 43.23135 66.42027 38226 ft 473 kts 310°
2026-04-28 16:35 43.25332 66.38661 38424 ft 473 kts 310°
2026-04-28 16:36 43.27523 66.35297 38586 ft 473 kts 310°
2026-04-28 16:36 43.29712 66.31933 38760 ft 473 kts 310°
2026-04-28 16:36 43.31901 66.28565 38938 ft 473 kts 310°
2026-04-28 16:36 43.34087 66.25197 39107 ft 473 kts 310°
2026-04-28 16:37 43.36274 66.21825 39269 ft 473 kts 310°
2026-04-28 16:37 43.38461 66.18448 39467 ft 473 kts 310°
2026-04-28 16:37 43.40646 66.15071 39625 ft 473 kts 310°
2026-04-28 16:38 43.45015 66.08304 39937 ft 473 kts 310°
2026-04-28 16:38 43.49409 66.01484 39929 ft 476 kts 310°
2026-04-28 16:39 43.53788 65.94670 39927 ft 473 kts 310°
2026-04-28 16:39 43.58142 65.87879 39929 ft 472 kts 310°
2026-04-28 16:40 43.62491 65.81080 39927 ft 473 kts 310°
2026-04-28 16:40 43.66837 65.74269 39927 ft 473 kts 310°
2026-04-28 16:41 43.71186 65.67437 39927 ft 473 kts 310°
2026-04-28 16:41 43.75503 65.60639 39928 ft 474 kts 310°
2026-04-28 16:42 43.79848 65.53782 39927 ft 474 kts 310°
2026-04-28 16:42 43.84191 65.46911 39930 ft 474 kts 310°
2026-04-28 16:43 43.88530 65.40031 39930 ft 474 kts 309°
2026-04-28 16:43 43.92870 65.33130 39930 ft 474 kts 309°
2026-04-28 16:44 43.97210 65.26214 39932 ft 477 kts 309°
2026-04-28 16:44 44.01574 65.19243 39938 ft 480 kts 309°
2026-04-28 16:45 44.05931 65.12267 39938 ft 475 kts 309°
2026-04-28 16:45 44.10236 65.05355 39930 ft 471 kts 309°
2026-04-28 16:46 44.14500 64.98492 39929 ft 472 kts 309°
2026-04-28 16:46 44.18802 64.91554 39928 ft 474 kts 309°
2026-04-28 16:47 44.23107 64.84593 39929 ft 474 kts 309°